Location: Ch�tillon
(48.8024°N, 2.2935°E)
Time: 17:48:11
(UTC+00:00)

RS-15 - Pass Details

Date: 03 July 2022
Orbit: 1881 x 2163 km, 64.8° (Epoch: 11 August)

Event Time Altitude Azimuth Distance (km) Brightness Sun altitude
Rises 21:53:41 0° 316° (NW) 5,693 12.1 -13.3°
Reaches altitude 10° 21:57:12 10° 319° (NW) 4,693 11.4 -13.6°
Maximum altitude 22:09:38 72° 44° (NE) 2,238 8.4 -14.5°
Enters shadow 22:21:06 12° 129° (SE) 4,400 9.4 -15.3°
